Location: Unspecified
(0.0000°N, 0.0000°E)
Time: 08:18:10
(UTC+00:00)

Courier 1B Rocket - All Passes

Search period start: 26 June 2016 00:00
Search period end: 06 July 2016 00:00
Orbit: 921 x 1202 km, 28.2° (Epoch: 24 June)

Date Brightness Start Highest point End Pass type
(mag) Time Alt. Az. Time Alt. Az. Time Alt. Az.
26 Jun - 01:05:14 10° NW 01:13:04 73° NNE 01:20:43 10° ESE night (unlit)
26 Jun - 02:59:58 10° W 03:06:58 36° SSW 03:13:41 10° SE visible
26 Jun - 04:59:15 10° SW 05:01:26 11° SSW 05:03:36 10° S visible
26 Jun - 10:44:57 10° S 10:48:24 15° SSE 10:51:49 10° ESE daylight
26 Jun - 12:36:05 10° SW 12:42:11 55° SSE 12:48:21 10° ENE daylight
26 Jun - 14:29:49 10° W 14:35:36 38° NNW 14:41:37 10° NE daylight
26 Jun - 16:27:36 10° NW 16:29:50 12° NNW 16:32:05 10° N daylight
26 Jun - 22:12:40 10° NNW 22:17:19 17° NNE 22:22:02 10° ENE visible
27 Jun - 00:04:12 10° NW 00:11:44 50° NNE 00:19:13 10° ESE night (unlit)
27 Jun - 01:58:02 10° WNW 02:05:39 53° SSW 02:13:01 10° SE night (unlit)
27 Jun - 03:55:10 10° WSW 03:59:52 17° SSW 04:04:27 10° SSE visible
27 Jun - 11:35:30 10° SW 11:41:11 35° SSE 11:46:49 10° E daylight
27 Jun - 13:28:27 10° WSW 13:34:35 60° NNW 13:40:52 10° NE daylight
27 Jun - 15:24:29 10° WNW 15:28:25 17° NNW 15:32:28 10° NNE daylight
27 Jun - 21:13:17 10° N 21:15:39 12° NNE 21:18:03 10° NE visible
27 Jun - 23:03:28 10° NW 23:10:21 35° NNE 23:17:19 10° E visible
28 Jun - 00:56:29 10° WNW 01:04:20 78° SSW 01:12:05 10° SE night (unlit)
28 Jun - 02:52:15 10° W 02:58:24 25° SSW 03:04:22 10° SSE visible
28 Jun - 10:35:07 10° SSW 10:40:05 23° SSE 10:44:56 10° ESE daylight
28 Jun - 12:27:21 10° WSW 12:33:38 88° SSE 12:39:56 10° ENE daylight
28 Jun - 14:22:12 10° W 14:27:10 24° NNW 14:32:17 10° NNE daylight
28 Jun - 22:03:01 10° NNW 22:08:54 24° NNE 22:14:57 10° ENE visible
28 Jun - 23:55:15 10° NW 00:03:00 75° NNE 00:10:50 10° ESE night (unlit)
29 Jun - 01:49:56 10° W 01:56:58 36° SSW 02:03:55 10° SE night (unlit)
29 Jun - 03:48:56 10° SW 03:51:36 12° SSW 03:54:15 10° S visible
29 Jun - 09:35:01 10° SSW 09:38:50 16° SSE 09:42:34 10° ESE daylight
29 Jun - 11:26:28 10° SW 11:32:42 57° SSE 11:38:47 10° ENE daylight
29 Jun - 13:20:24 10° W 13:26:05 37° NNW 13:31:50 10° NE daylight
29 Jun - 15:18:59 10° NNW 15:20:13 11° NNW 15:21:29 10° N daylight
29 Jun - 21:02:57 10° NNW 21:07:24 17° NNE 21:11:58 10° ENE visible
29 Jun - 22:54:18 10° NW 23:01:41 51° NNE 23:09:15 10° ESE visible
30 Jun - 00:48:03 10° WNW 00:55:36 52° SSW 01:03:09 10° SE night (unlit)
30 Jun - 02:45:05 10° WSW 02:49:58 18° SSW 02:54:46 10° SSE night (unlit)
30 Jun - 08:35:37 10° S 08:37:25 11° SSE 08:39:11 10° SE daylight
30 Jun - 10:25:45 10° SW 10:31:40 37° SSE 10:37:22 10° E daylight
30 Jun - 12:18:55 10° WSW 12:25:06 57° NNW 12:31:13 10° NE daylight
30 Jun - 14:15:15 10° WNW 14:18:51 16° NNW 14:22:30 10° NNE daylight
30 Jun - 20:03:56 10° N 20:05:48 11° NNE 20:07:42 10° NE visible
30 Jun - 21:53:39 10° NW 22:00:21 35° NNE 22:07:17 10° E visible
30 Jun - 23:46:34 10° WNW 23:54:16 76° SSW 00:02:08 10° SE night (unlit)
01 Jul - 01:42:15 10° WSW 01:48:25 25° SSW 01:54:33 10° SSE night (unlit)
01 Jul - 09:25:14 10° SSW 09:30:32 25° SSE 09:35:37 10° E daylight
01 Jul - 11:17:42 10° WSW 11:24:09 89° NNW 11:30:23 10° ENE daylight
01 Jul - 13:12:47 10° WNW 13:17:39 23° NNW 13:22:31 10° NNE daylight
01 Jul - 20:53:19 10° NNW 20:58:58 24° NNE 21:04:52 10° ENE visible
01 Jul - 22:45:25 10° NW 22:52:57 76° NNE 23:00:49 10° ESE visible
02 Jul - 00:40:00 10° W 00:46:57 36° SSW 00:53:59 10° SE night (unlit)
02 Jul - 02:38:49 10° SW 02:41:42 12° SSW 02:44:36 10° S night (unlit)
02 Jul - 08:24:55 10° SSW 08:29:14 17° SSE 08:33:23 10° ESE daylight
02 Jul - 10:16:41 10° SW 10:23:10 59° SSE 10:29:20 10° ENE daylight
02 Jul - 12:10:51 10° W 12:16:34 36° NNW 12:22:13 10° NE daylight
02 Jul - 19:53:25 10° N 19:57:33 16° NNE 20:01:50 10° ENE visible
02 Jul - 21:44:34 10° NW 21:51:41 52° NNE 21:59:11 10° ESE visible
02 Jul - 23:38:12 10° WNW 23:45:34 51° SSW 23:53:09 10° SE night (unlit)
03 Jul - 01:35:08 10° WSW 01:40:01 17° SSW 01:44:54 10° SSE night (unlit)
03 Jul - 07:25:01 10° S 07:27:46 12° SSE 07:30:26 10° SE daylight
03 Jul - 09:15:51 10° SW 09:22:06 39° SSE 09:28:00 10° E daylight
03 Jul - 11:09:14 10° WSW 11:15:35 56° NNW 11:21:42 10° NE daylight
03 Jul - 13:05:53 10° WNW 13:09:19 15° NNW 13:12:44 10° N daylight
03 Jul - 18:55:03 10° NNE 18:56:02 10° NNE 18:57:01 10° NNE visible
03 Jul - 20:44:00 10° NW 20:50:24 35° NNE 20:57:11 10° E visible
03 Jul - 22:36:47 10° WNW 22:44:14 74° SSW 22:52:04 10° SE visible
04 Jul - 00:32:23 10° WSW 00:38:25 25° SSW 00:44:34 10° SSE night (unlit)
04 Jul - 08:15:11 10° SSW 08:20:55 27° SSE 08:26:19 10° E daylight
04 Jul - 10:07:54 10° WSW 10:14:37 87° NNW 10:20:57 10° ENE daylight
04 Jul - 12:03:14 10° WNW 12:08:07 23° NNW 12:12:55 10° NNE daylight
04 Jul - 19:43:46 10° NNW 19:49:08 23° NNE 19:54:46 10° ENE visible
04 Jul - 21:35:44 10° NW 21:42:59 77° NNE 21:50:42 10° ESE visible
04 Jul - 23:30:12 10° W 23:36:56 34° SSW 23:43:55 10° SE night (unlit)
05 Jul - 01:28:55 10° SW 01:31:47 12° SSW 01:34:39 10° S night (unlit)
05 Jul - 07:14:42 10° SSW 07:19:33 19° SSE 07:24:11 10° ESE daylight
05 Jul - 09:06:46 10° SW 09:13:35 62° SSE 09:19:57 10° ENE daylight
05 Jul - 11:01:09 10° W 11:07:03 35° NNW 11:12:43 10° NE daylight
05 Jul - 18:44:00 10° N 18:47:47 15° NNE 18:51:41 10° ENE visible
05 Jul - 20:34:57 10° NW 20:41:46 52° NNE 20:49:04 10° ESE visible
05 Jul - 22:28:30 10° WNW 22:35:34 49° SSW 22:43:02 10° SE visible
